Dean International
Flight School

Career Spotlight

Mika

Mika

Congratulations to Mika from Khazakstan. She recently sent us this photo of her flying an Airbus airliner.

More...
Mika's Success Story
close

Congratulations to Mika from Khazakstan. She recently sent us this photo of her flying an Airbus airliner.

Mario

Mario

My dreams could not have been realized if I wouldn't have been part of the Dean International family.

More...
Mario's Success Story
close

"My dreams could not have been realized if I wouldn't have been part of the Dean International family. Thank you Robert, thanks to all my co-workers, and thanks to all of my students!"

Fernando

Fernando

I am now working as a First Officer at TACA and am enjoying every moment of it.

More...
Fernando's Success Story
close

"Will never forget my time of flight training at Dean International. I am now working as a First Officer at TACA and am enjoying every moment of it."

Alvaro

Alvaro

Because of the flight time I was able to built while instructing, I got the experience needed to apply to an airline in Colombia.

More...
Alvaro's Success Story
close

Dean alumnus Alvaro Londoño currently flies with Tampa Cargo. He says of his experience at Dean: "I want to take this opportunity to thank you for giving me the chance to build my experience and expand my knowledge in Dean International. Because of the flight time I was able to built flight instructing, I got the experience needed to apply to an airline in Colombia."

Ralph

Ralph

Every Aruban student of Dean International has made it into Tiara Air Aruba, that is very nice.

More...
Ralph's Success Story
close

"Next to me is my Co-Pilot, Elison. This picture was taken on our first flight together, which was almost exactly 5 years after I finished at Dean International. [...] Every Aruban student of Dean International has made it into Tiara Air Aruba. [...] The future looks bright here in Aruba."

Rohaan

Rohaan

The [..] staff will all work diligently to help you finish your certificates as safely and efficiently as possible.

More...
Rohaan's Success Story
close

After receiving very hard times from other flight schools [...], I came to Dean International where Robert Dean personally sat down with me and gave me a financial and chronological look into how much remained to finish my private pilot certificate. Through his hard efforts as an instructor and mentor, I was able to finish my private pilot certificate within one week.

Welcome to Dean International

In over two decades, Dean International has educated over 7,000 pilots from all over the world, including over 1,000 students from India alone. By offering a great training experience, a friendly service staff, an ample variety of aircraft, and by improving constantly, we have become one of the largest, most prestigious FAA 141-approved flight schools in North America. Located in Miami, Florida, USA, our flight school offers an ideal location for year-round, "learn to fly" weather, flight training. Dean International is not only well-equipped to provide services to professional trainees but also caters to General Aviation renters. Visit or contact our headquarters at Kendall-Tamiami Executive Airport located in Miami, FL today to learn more about us, or simply read more about our programs if you are an international student interested in joining our school.

Local Airport Information
TAF FOR KTMB (Issued: Tue, September 2nd 2014 12:42 PM UTC)
TAF KTMB 021140Z 0212/0312 VRB02KT P6SM VCSH SCT029 BKN035 BKN080
      FM021400 10010KT P6SM VCSH SCT028 SCT050
      FM022000 10005KT P6SM SCT030
     
METAR FOR KTMB (Issued: Tue, September 2nd 2014 12:53 PM UTC):
KTMB 021253Z 10008KT 10SM CLR 31/24 A3006 RMK AO2 SLP177 T03060239

This weather information is provided by the National Weather Service.
It is automatically refreshed every three minutes.
TAF FOR KHST (Issued: Tue, September 2nd 2014 8:06 AM UTC)
TAF KHST 0208/0314 09006KT 9999 FEW025 FEW250 QNH3003INS
      BECMG 0215/0216 09012KT 8000 -SHRA VCTS SCT050CB SCT250 QNH3000INS
      BECMG 0301/0302 VRB06KT 9999 NSW FEW050 SCT250 QNH3004INS TX33/0219Z TN22/0307Z
     
METAR FOR KHST (Issued: Tue, September 2nd 2014 12:58 PM UTC):
KHST 021258Z AUTO 10007KT 10SM CLR 30/23 A3005 RMK AO2 SLP179 T02980234

This weather information is provided by the National Weather Service.
It is automatically refreshed every three minutes.
TAF FOR KOPF (Issued: Tue, September 2nd 2014 12:42 PM UTC)
TAF KOPF 021140Z 0212/0312 02003KT P6SM VCSH SCT030 SCT050
      FM021400 10010KT P6SM VCSH SCT030 SCT050
      FM022300 10005KT P6SM SCT030
     
METAR FOR KOPF (Issued: Tue, September 2nd 2014 1:00 PM UTC):
KOPF 021300Z 22005KT 5SM -RA BR BKN030 BKN039 BKN050 26/24 A3006 RMK AO2 P0000 T02610239

This weather information is provided by the National Weather Service.
It is automatically refreshed every three minutes.
TAF FOR KMIA (Issued: Tue, September 2nd 2014 12:45 PM UTC)
TAF KMIA 021140Z 0212/0312 VRB02KT P6SM VCSH SCT025 SCT040
      FM021300 10010KT P6SM VCSH SCT030 SCT050
      FM022300 10005KT P6SM SCT030
     
METAR FOR KMIA (Issued: Tue, September 2nd 2014 12:53 PM UTC):
KMIA 021253Z 12006KT 10SM -RA SCT028CB BKN050 BKN090 29/24 A3006 RMK AO2 RAB48 SLP178 CB NW-N MOV W P0000 T02940239

This weather information is provided by the National Weather Service.
It is automatically refreshed every three minutes.
Design by Ariel Llizo
© Dean International Inc. 2012